Radiation Dose at Monitoring Post of Fukushima Daini Nuclear Power Station
Date,Time,MP-1(microSv/h),MP-2(microSv/h),MP-3(microSv/h),MP-4(microSv/h),MP-5(microSv/h),MP-6(microSv/h),MP-7(microSv/h),Wind Direction,Wind Velocity(m/s),Rain
2017/10/10,00:00,0.334,0.212,0.346,0.328,0.314,0.171,0.102,west-southwest,1.6,No
2017/10/10,00:10,0.339,0.212,0.345,0.326,0.316,0.172,0.102,west-southwest,3.6,No
2017/10/10,00:20,0.337,0.211,0.343,0.326,0.311,0.172,0.102,west,6.7,No
2017/10/10,00:30,0.338,0.212,0.344,0.328,0.314,0.172,0.102,west-northwest,5.8,No
2017/10/10,00:40,0.338,0.212,0.343,0.324,0.313,0.171,0.102,west,6.9,No
2017/10/10,00:50,0.334,0.211,0.345,0.328,0.313,0.170,0.102,west,9.5,No
2017/10/10,01:00,0.339,0.210,0.342,0.325,0.313,0.171,0.102,west,10.9,Yes
2017/10/10,01:10,0.335,0.211,0.345,0.325,0.311,0.171,0.102,west,9.8,Yes
2017/10/10,01:20,0.338,0.212,0.344,0.328,0.315,0.171,0.101,west-southwest,9.0,No
2017/10/10,01:30,0.336,0.210,0.342,0.325,0.313,0.171,0.102,west,7.2,No
2017/10/10,01:40,0.333,0.212,0.345,0.325,0.312,0.171,0.102,west-southwest,8.3,No
2017/10/10,01:50,0.338,0.210,0.343,0.327,0.315,0.172,0.101,west,7.1,No
2017/10/10,02:00,0.336,0.209,0.342,0.324,0.314,0.170,0.102,west,6.4,No
2017/10/10,02:10,0.336,0.212,0.346,0.328,0.312,0.171,0.101,west-northwest,6.7,No
2017/10/10,02:20,0.338,0.210,0.342,0.327,0.316,0.172,0.100,west,8.1,No
2017/10/10,02:30,0.334,0.211,0.344,0.323,0.311,0.171,0.102,west,6.7,No
2017/10/10,02:40,0.335,0.212,0.344,0.327,0.313,0.172,0.101,west,3.2,No
2017/10/10,02:50,0.338,0.210,0.342,0.326,0.315,0.171,0.101,-,CALM,No
2017/10/10,03:00,0.335,0.212,0.345,0.325,0.311,0.171,0.102,east-northeast,0.9,No
2017/10/10,03:10,0.339,0.210,0.343,0.329,0.315,0.172,0.101,north-northeast,2.0,No
2017/10/10,03:20,0.336,0.211,0.345,0.325,0.315,0.171,0.102,north,1.7,No
2017/10/10,03:30,0.337,0.211,0.345,0.326,0.311,0.172,0.102,northwest,1.2,No
2017/10/10,03:40,0.339,0.211,0.343,0.327,0.316,0.171,0.101,west-northwest,1.2,No
2017/10/10,03:50,0.335,0.213,0.346,0.325,0.313,0.172,0.102,northwest,1.2,No
2017/10/10,04:00,0.339,0.210,0.344,0.327,0.315,0.173,0.102,north,1.2,No
2017/10/10,04:10,0.337,0.212,0.344,0.327,0.315,0.170,0.102,-,CALM,No
2017/10/10,04:20,0.336,0.211,0.345,0.325,0.312,0.172,0.101,north-northeast,1.3,No
2017/10/10,04:30,0.339,0.212,0.342,0.327,0.315,0.171,0.102,northeast,1.0,No
2017/10/10,04:40,0.335,0.211,0.346,0.324,0.313,0.171,0.102,northeast,1.6,No
2017/10/10,04:50,0.339,0.213,0.343,0.328,0.315,0.171,0.102,northeast,2.3,No
2017/10/10,05:00,0.336,0.212,0.346,0.325,0.314,0.171,0.101,northeast,0.6,No
2017/10/10,05:10,0.338,0.212,0.345,0.326,0.314,0.173,0.101,-,CALM,No
2017/10/10,05:20,0.338,0.212,0.345,0.327,0.315,0.171,0.102,north-northeast,0.7,No
2017/10/10,05:30,0.336,0.212,0.346,0.325,0.313,0.172,0.102,north-northeast,2.5,No
2017/10/10,05:40,0.339,0.212,0.344,0.328,0.317,0.172,0.102,northeast,1.7,No
2017/10/10,05:50,0.335,0.211,0.345,0.325,0.314,0.172,0.101,north,3.2,No
2017/10/10,06:00,0.340,0.212,0.343,0.328,0.315,0.173,0.102,north-northwest,3.3,No
2017/10/10,06:10,0.336,0.211,0.346,0.325,0.314,0.171,0.102,north-northwest,3.4,No
2017/10/10,06:20,0.338,0.212,0.342,0.328,0.313,0.172,0.101,northwest,3.0,No
2017/10/10,06:30,0.338,0.210,0.345,0.325,0.314,0.170,0.102,west-northwest,3.4,No
2017/10/10,06:40,0.337,0.212,0.345,0.327,0.311,0.171,0.102,west-northwest,3.9,No
2017/10/10,06:50,0.339,0.210,0.345,0.326,0.314,0.171,0.101,west-northwest,5.0,No
2017/10/10,07:00,0.335,0.212,0.345,0.324,0.312,0.171,0.102,northwest,3.1,No
2017/10/10,07:10,0.338,0.212,0.345,0.329,0.314,0.172,0.101,northwest,3.4,No
2017/10/10,07:20,0.338,0.212,0.346,0.325,0.316,0.171,0.101,northwest,3.7,No
2017/10/10,07:30,0.337,0.211,0.343,0.323,0.311,0.171,0.101,northwest,3.2,No
2017/10/10,07:40,0.338,0.211,0.345,0.328,0.314,0.171,0.101,northwest,3.2,No
2017/10/10,07:50,0.336,0.211,0.342,0.327,0.314,0.170,0.101,west-northwest,3.9,No
2017/10/10,08:00,0.339,0.210,0.344,0.324,0.311,0.172,0.100,west,2.3,No
2017/10/10,08:10,0.337,0.211,0.345,0.321,0.315,0.171,0.102,west,2.3,No
2017/10/10,08:20,0.336,0.209,0.343,0.327,0.315,0.171,0.101,west-southwest,1.4,No
2017/10/10,08:30,0.340,0.211,0.345,0.327,0.312,0.172,0.102,south-southwest,0.6,No
2017/10/10,08:40,0.335,0.211,0.342,0.325,0.313,0.172,0.102,-,CALM,No
2017/10/10,08:50,0.336,0.211,0.344,0.325,0.315,0.172,0.102,southeast,1.1,No
2017/10/10,09:00,0.340,0.212,0.346,0.328,0.313,0.173,0.102,south-southeast,1.7,No
2017/10/10,09:10,0.337,0.212,0.344,0.328,0.311,0.172,0.103,east-southeast,2.0,No
2017/10/10,09:20,0.336,0.214,0.344,0.327,0.317,0.172,0.103,southeast,1.9,No
2017/10/10,09:30,0.341,0.212,0.348,0.329,0.316,0.173,0.103,east-southeast,2.5,No
2017/10/10,09:40,0.338,0.210,0.343,0.329,0.313,0.170,0.103,southeast,2.8,No
2017/10/10,09:50,0.334,0.212,0.345,0.325,0.310,0.171,0.102,southeast,2.2,No
2017/10/10,10:00,0.332,0.212,0.346,0.323,0.316,0.171,0.101,south-southeast,2.6,No
2017/10/10,10:10,0.335,0.210,0.340,0.326,0.315,0.172,0.102,east-southeast,1.9,No
2017/10/10,10:20,0.340,0.209,0.344,0.328,0.313,0.171,0.101,east-southeast,1.6,No
2017/10/10,10:30,0.337,0.212,0.346,0.327,0.310,0.171,0.101,southeast,1.8,No
2017/10/10,10:40,0.334,0.212,0.341,0.324,0.314,0.171,0.100,southeast,2.2,No
2017/10/10,10:50,0.333,0.212,0.341,0.324,0.315,0.172,0.101,southeast,2.2,No
2017/10/10,11:00,0.334,0.212,0.345,0.322,0.315,0.170,0.101,southeast,2.5,No
2017/10/10,11:10,0.334,0.210,0.345,0.323,0.314,0.170,0.100,-,-,No
2017/10/10,11:20,0.333,0.210,0.341,0.326,0.311,0.170,0.101,-,-,No
2017/10/10,11:30,0.334,0.211,0.342,0.330,0.311,0.172,0.102,-,-,No
2017/10/10,11:40,0.341,0.212,0.346,0.328,0.312,0.172,0.102,-,-,No
2017/10/10,11:50,0.339,0.212,0.344,0.325,0.317,0.171,0.101,-,-,No
2017/10/10,12:00,0.337,0.210,0.342,0.328,0.314,0.170,0.101,-,-,No
2017/10/10,12:10,0.336,0.211,0.345,0.329,0.312,0.172,0.102,-,-,No
2017/10/10,12:20,0.340,0.212,0.344,0.326,0.314,0.172,0.102,-,-,No
2017/10/10,12:30,0.338,0.212,0.342,0.324,0.315,0.171,0.101,-,-,No
2017/10/10,12:40,0.335,0.212,0.345,0.328,0.315,0.169,0.101,-,-,No
2017/10/10,12:50,0.336,0.210,0.347,0.327,0.312,0.172,0.102,-,-,No
2017/10/10,13:00,0.339,0.211,0.343,0.326,0.311,0.172,0.101,-,-,No
2017/10/10,13:10,0.337,0.213,0.342,0.324,0.314,0.171,0.102,-,-,No
2017/10/10,13:20,0.333,0.212,0.346,0.329,0.316,0.171,0.101,-,-,No
2017/10/10,13:30,0.340,0.211,0.344,0.327,0.313,0.171,0.102,-,-,No
2017/10/10,13:40,0.338,0.212,0.341,0.324,0.311,0.172,0.102,-,-,No
2017/10/10,13:50,0.336,0.212,0.346,0.327,0.314,0.170,0.102,-,-,No
2017/10/10,14:00,0.338,0.210,0.344,0.327,0.315,0.172,0.101,-,-,No
2017/10/10,14:10,0.340,0.210,0.341,0.326,0.312,0.172,0.102,-,-,No
2017/10/10,14:20,0.337,0.213,0.346,0.327,0.314,0.171,0.101,-,-,No
2017/10/10,14:30,0.337,0.211,0.346,0.328,0.314,0.172,0.102,-,-,No
2017/10/10,14:40,0.339,0.211,0.341,0.327,0.312,0.172,0.103,-,-,No
2017/10/10,14:50,0.337,0.213,0.345,0.326,0.313,0.171,0.101,-,-,No
2017/10/10,15:00,0.336,0.211,0.345,0.330,0.316,0.171,0.101,-,-,No
2017/10/10,15:10,0.340,0.211,0.343,0.325,0.314,0.172,0.102,-,-,No
2017/10/10,15:20,0.338,0.213,0.347,0.325,0.310,0.172,0.101,-,-,No
2017/10/10,15:30,0.335,0.213,0.345,0.330,0.314,0.170,0.102,-,-,No
2017/10/10,15:40,0.340,0.211,0.342,0.328,0.315,0.172,0.101,-,-,No
2017/10/10,15:50,0.338,0.214,0.346,0.322,0.312,0.171,0.102,-,-,No
2017/10/10,16:00,0.334,0.213,0.346,0.327,0.314,0.171,0.101,-,-,No
2017/10/10,16:10,0.339,0.211,0.343,0.325,0.317,0.171,0.102,-,-,No
2017/10/10,16:20,0.339,0.212,0.347,0.323,0.313,0.171,0.102,-,-,No
2017/10/10,16:30,0.336,0.211,0.347,0.329,0.312,0.170,0.102,-,-,No
2017/10/10,16:40,0.340,0.211,0.343,0.327,0.315,0.172,0.102,-,-,No
2017/10/10,16:50,0.339,0.214,0.348,0.324,0.314,0.171,0.101,south,4.8,No
2017/10/10,17:00,0.334,0.211,0.344,0.330,0.313,0.171,0.102,south,4.2,No
2017/10/10,17:10,0.341,0.211,0.343,0.327,0.316,0.173,0.102,south,4.8,No
2017/10/10,17:20,0.338,0.213,0.348,0.326,0.314,0.173,0.101,south,4.8,No
2017/10/10,17:30,0.337,0.211,0.343,0.330,0.316,0.171,0.101,south,4.4,No
2017/10/10,17:40,0.340,0.213,0.347,0.326,0.317,0.172,0.103,south-southwest,5.1,No
2017/10/10,17:50,0.337,0.211,0.345,0.328,0.312,0.170,0.101,south,3.4,No
2017/10/10,18:00,0.340,0.212,0.344,0.329,0.317,0.172,0.101,south,5.4,No
2017/10/10,18:10,0.338,0.212,0.348,0.326,0.315,0.172,0.102,south,4.8,No
2017/10/10,18:20,0.337,0.213,0.343,0.328,0.315,0.172,0.101,south,5.5,No
2017/10/10,18:30,0.340,0.212,0.348,0.327,0.317,0.172,0.103,south,4.8,No
2017/10/10,18:40,0.336,0.211,0.344,0.328,0.313,0.171,0.102,south,4.9,No
2017/10/10,18:50,0.339,0.214,0.346,0.328,0.316,0.173,0.103,south,4.3,No
2017/10/10,19:00,0.338,0.211,0.347,0.326,0.314,0.172,0.103,south,4.8,No
2017/10/10,19:10,0.338,0.213,0.345,0.329,0.314,0.172,0.102,south,4.0,No
2017/10/10,19:20,0.339,0.211,0.348,0.326,0.317,0.172,0.103,south,5.0,No
2017/10/10,19:30,0.336,0.212,0.345,0.328,0.314,0.172,0.102,south,4.9,No
2017/10/10,19:40,0.340,0.211,0.348,0.329,0.315,0.172,0.102,south,4.0,No
2017/10/10,19:50,0.340,0.213,0.347,0.328,0.316,0.172,0.103,south-southeast,3.8,No
2017/10/10,20:00,0.337,0.211,0.345,0.329,0.313,0.173,0.102,south,4.3,No
2017/10/10,20:10,0.341,0.212,0.349,0.327,0.316,0.172,0.103,south,5.4,No
2017/10/10,20:20,0.337,0.212,0.345,0.329,0.314,0.172,0.102,south,3.7,No
2017/10/10,20:30,0.340,0.212,0.348,0.328,0.315,0.172,0.102,south,5.6,No
2017/10/10,20:40,0.337,0.213,0.346,0.329,0.316,0.172,0.102,south-southwest,6.2,No
2017/10/10,20:50,0.337,0.212,0.347,0.329,0.314,0.172,0.103,south-southwest,5.0,No
2017/10/10,21:00,0.339,0.213,0.346,0.327,0.316,0.172,0.103,south-southwest,4.5,No
2017/10/10,21:10,0.335,0.211,0.345,0.329,0.313,0.173,0.102,south-southwest,4.0,No
2017/10/10,21:20,0.340,0.212,0.348,0.327,0.315,0.173,0.102,south-southwest,2.0,No
2017/10/10,21:30,0.339,0.211,0.344,0.327,0.316,0.173,0.103,south-southwest,1.5,No
2017/10/10,21:40,0.338,0.213,0.348,0.328,0.313,0.173,0.102,south-southwest,2.1,No
2017/10/10,21:50,0.340,0.213,0.345,0.326,0.318,0.173,0.103,south-southwest,3.1,No
2017/10/10,22:00,0.337,0.211,0.346,0.331,0.315,0.173,0.103,south-southwest,1.9,No
2017/10/10,22:10,0.342,0.213,0.347,0.328,0.315,0.173,0.102,south-southwest,1.8,No
2017/10/10,22:20,0.339,0.212,0.344,0.329,0.315,0.172,0.103,southwest,1.4,No
2017/10/10,22:30,0.340,0.212,0.348,0.328,0.314,0.173,0.102,south,1.3,No
2017/10/10,22:40,0.339,0.212,0.345,0.327,0.318,0.171,0.103,south-southwest,1.6,No
2017/10/10,22:50,0.337,0.212,0.348,0.328,0.313,0.172,0.103,west-southwest,2.5,No
2017/10/10,23:00,0.340,0.212,0.345,0.327,0.315,0.171,0.103,west-southwest,3.4,No
2017/10/10,23:10,0.336,0.214,0.348,0.331,0.316,0.172,0.103,west-southwest,2.6,No
2017/10/10,23:20,0.340,0.212,0.345,0.327,0.314,0.173,0.103,west-northwest,2.8,No
2017/10/10,23:30,0.339,0.214,0.347,0.328,0.317,0.172,0.104,northwest,2.6,No
2017/10/10,23:40,0.338,0.212,0.347,0.328,0.314,0.174,0.102,north-northwest,1.9,No
2017/10/10,23:50,0.339,0.213,0.343,0.326,0.315,0.171,0.104,north-northwest,2.9,No
